SPOT 7 (40053 NORAD) Tracking and Keplerian Element Data

This shows tracking and keplerian element data for the satellite.

Feedback or suggestion? Click here.




ElementValue
Catalog40053
NameSPOT 7
Epoch Orbit38555
Epoch Day269.10851232
Epoch Year2021
RAAN335.3976
Inclination98.2088
Eccentricity0.0001167
Argument of Perigee77.0554
Mean Anonmoly283.0781
Mean Motion14.58548405
Decay Rate-2.2E-07
L11 40053U 14034A 21269.10851232 -.00000022 00000-0 51533-5 0 9993
L22 40053 98.2088 335.3976 0001167 77.0554 283.0781 14.58548405385557

Live tracking and technical data element details for SPOT 7 (NORAD 40053). SPOT 7 can be tracked NOW for your location showing map with azimuth and elevation plus other details from your city location.

Track the satellite on the map from your city or location and see movement details for azimuth, elevation, latitude, longitude, range, height, and movement on the map or in text.







IsCatalogInMostPopularTable: catalog: 40053, numindb: 537
Update: records affected: 1



GetName: 40053 SPOT 7

Hit Count: updated at: Mon, 27 Sep 2021 00:06:15 GMT